DB0SWS-6 Weather Reports


time (UTC)temp
C
wind
direction
speed
KPH
gust
KPH
rain 1hr
cm
rain 24hr
cm
rain mn
cm
humidity
%
barometer
mb
20260506183328 10 270 3.2 4.8 0.23 1.52 1.52 99 954.6
20260506180329 10 252 1.6 4.8 0.18 1.37 1.37 99 954.3
20260506173329 10 270 0.0 0.0 0.18 1.30 1.30 99 954.1
20260506170331 10 270 0.0 0.0 0.13 1.22 1.19 99 953.9
20260506163330 10 202 0.0 0.0 0.10 1.17 1.12 99 954.1
20260506160331 10 267 1.6 3.2 0.10 1.37 1.09 98 954.0
20260506153330 10 248 3.2 4.8 0.15 1.35 1.02 98 954.0
20260506150329 11 248 1.6 3.2 0.48 1.32 0.99 99 953.8
20260506143330 11 338 1.6 8.0 0.56 1.19 0.86 99 953.7
20260506140329 11 225 0.0 0.0 0.20 0.84 0.51 98 953.3
20260506133330 12 0 0.0 0.0 0.15 0.64 0.30 94 953.2
20260506130328 12 90 0.0 1.6 0.30 0.64 0.30 97 952.7
20260506123328 13 248 0.0 0.0 0.15 0.48 0.15 89 952.7
20260506120330 15 270 3.2 4.8 0.00 0.36 0.00 78 952.5
20260506113329 14 248 1.6 3.2 0.00 0.36 0.00 80 952.6
20260506110330 15 315 0.0 1.6 0.00 0.38 0.00 81 952.6
20260506103331 14 280 3.2 4.8 0.00 0.38 0.00 81 952.9
20260506100330 14 270 8.0 11.3 0.00 0.38 0.00 81 952.8
20260506093330 13 251 3.2 9.7 0.00 0.38 0.00 84 952.9
20260506090331 14 301 1.6 3.2 0.00 0.38 0.00 84 952.7
20260506083329 15 270 4.8 9.7 0.00 0.38 0.00 79 952.5
20260506080330 15 284 8.0 11.3 0.00 0.38 0.00 77 952.4
20260506073330 13 248 1.6 3.2 0.00 0.38 0.00 80 952.3
20260506070330 14 248 93.3 93.3 0.00 0.38 0.00 10 952.3
20260506060329 12 68 1.6 3.2 0.00 0.38 0.00 91 952.7
20260506050329 8 112 0.0 0.0 0.00 0.38 0.00 99 952.9
20260506043330 8 135 0.0 0.0 0.00 0.38 0.00 99 953.1
20260506040329 8 190 0.0 0.0 0.00 0.38 0.00 99 953.0
20260506030329 10 225 0.0 0.0 0.00 0.38 0.00 99 953.3
20260506010330 10 225 0.0 0.0 0.00 0.38 0.00 99 954.0
20260506003329 10 225 0.0 0.0 0.00 0.38 0.00 99 954.2
20260505233329 11 225 0.0 0.0 0.00 0.38 0.00 99 954.5
20260505230328 11 225 0.0 0.0 0.00 0.38 0.00 99 954.8
20260505223329 11 225 0.0 0.0 0.00 0.38 0.00 99 954.8
20260505220330 11 225 0.0 0.0 0.00 0.38 0.00 99 954.8
20260505213331 11 225 0.0 0.0 0.00 0.38 0.38 99 954.7
20260505210329 11 225 0.0 0.0 0.00 0.38 0.38 99 954.7
20260505203328 11 248 0.0 1.6 0.00 0.38 0.38 99 954.5
20260505200329 11 228 0.0 1.6 0.00 0.38 0.38 99 954.4
20260505190330 11 248 0.0 0.0 0.00 0.38 0.38 99 954.2